User: anonymous   Login
Location: Walnut Point State Park
(39.6958°N, 88.0345°W)
Time: 09:58:19
(UTC-06:00)
Language:

ATLAS 3B R/B - Orbit

View from above orbital plane
View from above orbital plane
View from above satellite
View from above satellite

Ground track
Ground track

The orbit data is extracted from the following two-line orbital elements,

1 28538U 05004B   14330.23997039 0.00000100  00000-0  15458-3 0    08
2 28538  63.8180 131.6035 0204000 237.6409 122.3591 13.43041800    07
Epoch (UTC): 26 November 2014 05:45:33
Eccentricity: 0.0204000
inclination: 63.8180°
perigee height: 945 km
apogee height: 1250 km
right ascension of ascending node: 131.6035°
argument of perigee: 237.6409°
revolutions per day: 13.43041800
mean anomaly at epoch: 122.3591°
orbit number at epoch: 0

The dashed part of the orbit path shows where the satellite is in the earth's shadow,  

DLR